Flag Weather past 2 weeks in Saint-Denis, Reunion (French)

Now
73 °F

Clear.


Feels Like: 75 °F
Forecast: 76 / 86 °F
Wind: 7 mph from South

Location: Saint-Denis / Gillot

Current Time: Nov 28, 2014 at 4:11:01 AM

Latest Report: Nov 28, 2014 at 3:30 AM


Visibility: N/A

Pressure: 29.83 "Hg

Humidity: 74%

Dew point: 64 °F

Location of Saint-DenisLocation

Historic Weather in Saint-Denis — Graph

°F

Saint-Denis temperature yesterday

Maximum temperature yesterday: 86 °F (at 9:00 AM)
Minimum temperature yesterday: 73 °F (at 2:00 AM)
Average temperature yesterday: 81 °F

Past Weeks' High & Low Weather Summary

 TemperatureHumidityPressure
High90 °F (Nov 24, 12:30 PM)94% (Nov 16, 4:30 AM)30.09 "Hg (Nov 16, 4:30 AM)
Low68 °F (Nov 18, 6:00 AM)51% (Nov 14, 9:00 PM)29.77 "Hg (Nov 27, 3:00 PM)
Average79 °F70%29.97 "Hg
* Reported Nov 13 3:00 AM — Nov 28 3:00 AM, Saint-Denis, Weather by CustomWeather, © 2014

Note: Actual official high and low records may vary slightly from our data, if they occured in-between our weather recording intervals... More about our weather records

Advertising

Saint-Denis weather history for previous 24 hours

 ConditionsComfort  
Time TempWeatherWind HumidityBarometerVisibility
3:00 AM
Nov 28
73 °FClear.3 mph69%29.83 "HgN/A
2:30 AM73 °FClear.5 mph74%29.80 "HgN/A
2:00 AM73 °FClear.5 mph74%29.83 "HgN/A
1:30 AM73 °FClear.5 mph78%29.83 "HgN/A
1:00 AM73 °FClear.5 mph83%29.83 "HgN/A
12:30 AM75 °FClear.3 mph83%29.83 "HgN/A
12:00 AM77 °FClear.9 mph83%29.83 "HgN/A
11:30 PM
Nov 27
77 °FClear.10 mph83%29.86 "HgN/A
11:00 PM77 °FPassing clouds.10 mph83%29.86 "HgN/A
10:30 PM79 °FPartly cloudy.10 mph79%29.86 "HgN/A
10:00 PM79 °FPartly cloudy.7 mph74%29.89 "HgN/A
9:30 PM79 °FPassing clouds.13 mph79%29.89 "HgN/A
9:00 PM79 °FPassing clouds.13 mph84%29.86 "HgN/A
8:30 PM81 °FPassing clouds.12 mph79%29.86 "HgN/A
8:00 PM81 °FPassing clouds.10 mph74%29.86 "HgN/A
7:30 PM81 °FPassing clouds.12 mph74%29.83 "HgN/A
7:00 PM81 °FPassing clouds.15 mph74%29.83 "HgN/A
6:00 PM82 °FPassing clouds.14 mph74%29.80 "HgN/A
5:30 PM82 °FPassing clouds.15 mph74%29.80 "HgN/A
5:00 PM82 °FPassing clouds.15 mph74%29.80 "HgN/A
4:30 PM84 °FPassing clouds.15 mph70%29.77 "HgN/A
4:00 PM84 °FPassing clouds.15 mph70%29.77 "HgN/A
3:00 PM86 °FPassing clouds.16 mph66%29.77 "HgN/A
2:30 PM86 °FPassing clouds.16 mph66%29.80 "HgN/A
2:00 PM86 °FPassing clouds.17 mph66%29.80 "HgN/A
1:30 PM86 °FPassing clouds.18 mph66%29.80 "HgN/A
1:00 PM86 °FPassing clouds.18 mph66%29.80 "HgN/A
12:00 PM86 °FPassing clouds.21 mph66%29.83 "HgN/A
11:30 AM84 °FPassing clouds.21 mph70%29.83 "HgN/A
11:00 AM86 °FPassing clouds.21 mph62%29.83 "HgN/A
10:30 AM86 °FPassing clouds.20 mph62%29.83 "HgN/A
10:00 AM86 °FScattered clouds.20 mph59%29.83 "HgN/A
9:00 AM86 °FScattered clouds.16 mph55%29.83 "HgN/A
8:30 AM84 °FScattered clouds.16 mph62%29.83 "HgN/A
8:00 AM84 °FScattered clouds.14 mph58%29.83 "HgN/A
7:30 AM81 °FScattered clouds.10 mph66%29.83 "HgN/A
6:30 AM79 °FScattered clouds.12 mph70%29.83 "HgN/A
6:00 AM77 °FPassing clouds.9 mph69%29.83 "HgN/A
5:30 AM77 °FPassing clouds.9 mph65%29.80 "HgN/A
5:00 AM77 °FPassing clouds.10 mph65%29.80 "HgN/A
4:00 AM77 °FPassing clouds.9 mph69%29.80 "HgN/A
Weather by CustomWeather, © 2014

See weather overviewHow to use our weather pages